Погода в Среднеколымске

Погода в Среднеколымске : погода сейчас, прогноз погоды и архив. Всё, что Вы хотите узнать о погоде в Среднеколымске!

Поиск расширенной информации на нашем сайте:

Другие новости

Новости СМИ2

Главная страница сайта

Новости сайта

03.07.2017

Напоминаем, что на нашем специализированном сайте Метеоцентр.Азия вы можете получить высокодетализированные автоматические прогнозы погоды по пунктам России, СНГ и мира в авиационном формате (включающие направление и скорость ветра, видимость, явления погоды, количество и форму облачности, нижнюю и верхнюю границу облачности).


Погода в Среднеколымске - сегодня

Время (UTC), дата Ветер
(°,м/с) 
Видим.   Явления Облачность Т
(°С)
Тd
(°С)
f(%) Тe
(°С)
Pmin
(гПа)
dP
(гПа)
Po
(мм)
O2
(г/м3)
Тmin Tmax R s Состояние
почвы
00 19.11.17 210 (ЮЗ) 20000 м  слаб. снег{ливн. осадки}  10/0 средняя, верхняя 
[Ac trans|Cs]
-22.9 -25.5 79 -30  1012.3  2.1  756  334  -22.9         
03 19.11.17 210 (ЮЗ) 20000 м  позёмок{снег}  10/0 средняя, верхняя 
[Ac trans|Ci fib]
-22.9 -25.5 79 -30  1013.7  1.4  757  335           
06 19.11.17 240 (ЮЗ) 20000 м  позёмок{снег}  10/3 1000 м средняя, верхняя 
[Sc|Ac trans|Ci fib]
-21.9 -24.5 79 -29  1015.7  2.1  759  334           
09 19.11.17 210 (ЮЗ) 20000 м    10/0 верхняя 
[Ci fib]
-22.3 -24.2 85 -28  1017.2  1.5  760  335    -20.9  0.0     
12 19.11.17 210 (ЮЗ) 20000 м    10/0 средняя, верхняя 
[Ac trans|Ci fib]
-22.5 -25 80 -25  1019.5  2.2  761  336           
15 19.11.17 200 (Ю) 20000 м    10/0 средняя, верхняя 
[Ac trans|Ci fib]
-24.5 -27 80 -28  1018.6  -0.9  761  339           
18 19.11.17 200 (Ю) 20000 м    10/0 средняя, верхняя 
[Ac trans|Ci fib]
-27.3 -29.8 79 -28  1017.4  -1.2  760  342           
21 19.11.17 210 (ЮЗ) 20000 м    10/0 средняя, верхняя 
[Ac trans|Ci fib]
-25.6 -28.1 80 -26  1014.7  -2.7  758  339  -31      52  равномерный
сухой снег
100% 
00 20.11.17 040 (СВ) 20000 м    10/0 средняя, верхняя 
[Ac trans|Ci fib]
-25.2 -27.7 80 -30  1011.5  -3.2  755  337           
03 20.11.17 030 (СВ) 20000 м    10/3 1000 м средняя, верхняя 
[Sc|Ac trans|Ci fib]
-22.1 -24.7 79 -27  1006.1  -5.3  751  331           
06 20.11.17 050 (СВ) 20000 м  позёмок  10/6 1000 м средняя 
[Sc|Ac trans]
-18.1 -20.7 80 -24  1001.4  -4.7  748  324           
09 20.11.17 060 (СВ) 20000 м  позёмок{снег}  10/0 средняя, верхняя 
[Ac trans|Cs]
-17.8 -20.4 80 -24  998.2  -3.2  746  323    -17.6  0.0     
12 20.11.17 090 (В) 20000 м  слаб. снег  10/0 средняя, верхняя 
[Ac trans|Cs]
-15.9 -18.6 80 -18  994.7  -3.4  743  319           
15 20.11.17 340 (С) 20000 м  слаб. снег  10/0 средняя, верхняя 
[Ac trans|Cs]
-15.2 -17.2 85 -17  991.1  -3.6  740  317           
18 20.11.17 220 (ЮЗ) 10 км  слаб. снег  10/10 1500 м 
[Ns]
-15.9 -17.8 85 -18  989.4  -1.7  739  318           
21 20.11.17 230 (ЮЗ) 2000 м  слаб. снег  10/10 1500 м 
[Ns]
-17.4 -19.3 85 -23  988.7  -0.6  739  319  -17.8    50  равномерный
сухой снег
100% 
00 21.11.17 230 (ЮЗ) 5-10{10}  20000 м  слаб. снег  10/0 средняя, верхняя 
[Ac trans|Cs]
-20.9 -23.4 80 -28  988.8  739  324  -21.1         
03 21.11.17 210 (ЮЗ) 5{11}  20000 м  позёмок{снег}  8/0 средняя, верхняя 
[Ac trans|Ci fib]
-23.3 -26.5 75 -30  989.6  0.7  739  327           
06 21.11.17 240 (ЮЗ) 2{10}  20000 м  позёмок{снег}  10/0 средняя, верхняя 
[Ac trans|Ci fib]
-21.8 -25 75 -25  990  0.4  739  325           
09 21.11.17 210 (ЮЗ) 4{10}  20000 м  позёмок  10/0 средняя, верхняя 
[Ac trans|Ci fib]
-20.1 -23.4 75 -26  991.2  1.2  740  324    -17.2  0.7     
12 21.11.17 210 (ЮЗ) 20000 м  позёмок  10/0 средняя, верхняя 
[Ac trans|Ci fib]
-22.1 -24.7 79 -29  992.6  1.4  741  327           
15 21.11.17 170 (Ю) 20000 м    10/0 верхняя 
[Ci fib]
-24.4 -26.9 80 -28  993.6  742  330           
18 21.11.17 тихо ()   20000 м    8/0 верхняя 
[Ci fib]
-28.4 -30.7 81 -28  994.1  0.4  742  336           
21 21.11.17 090 (В) 20000 м    4/0 верхняя 
[Ci fib]
-31.1 -33.4 80 -32  995.2  1.1  743  340  -34.4      46  равномерный
сухой снег
100% 
00 22.11.17 тихо ()   20000 м    4/0 средняя, верхняя 
[Ac trans|Ci fib]
-34 -36.8 76 -34  996.3  744  344  -36.4         
Время (UTC), дата Ветер
(°,м/с) 
Видим.   Явления Облачность Т
(°С)
Тd
(°С)
f(%) Тe
(°С)
Pmin
(гПа)
dP
(гПа)
Po
(мм)
O2
(г/м3)
Тmin Tmax R s Состояние
почвы

Для получения пояснительной информации подведите курсор к названию столбца.

ПОГОДА в Среднеколымске - архив

Всё, что Вы хотите узнать о погоде в Среднеколымске - удобно и подробно!

Выберите нужную дату (начиная с 1 января 2015* года) и нажмите кнопку "Найти".
Будут отображены архивные сводки погоды по пункту Среднеколымск, начиная с указанной даты.


Отображать данные в формате CSV (для использования в таблицах Excel)


Внимание! Наш архив погоды предназначен исключительно для личного некоммерческого использования в познавательных целях. Если Вам необходимы официальные справки о состоянии погоды (для производственных, юридических, коммерческих и т.п. целей), обращайтесь в органы Росгидромета.

*Примечание: данная дата относится к архиву по метеостанциям СССР (Россия, СНГ, Балтия).
Архив по метеостанциям Зарубежной Европы и Азии (кроме Китая) хранится 10 дней, по другим регионам земного шара (Китай, Африка, Америка, Австралия, Океания) - 1 день.

Среднеколымск - район местоположения метеостанции


Название, широта, долгота, высота метеостанции:
Среднеколымск 67.45°ш. 153°д. 21 м над ур. моря [Российская Федерация]

Дополнительная информация

В oтличие oт бoльшинства пoгoдных сайтoв мы публикуем пoдрoбную метеoинфoрмацию в детальнoм прoфессиoнальнoм фoрмате.

Характеристики температуры и влажнoсти вoздуха измеряются на высoте 2 м в тени вдали oт зданий и деревьев.
Скoрoсть ветра измеряется на высoте 10 м (на урoвне рoста челoвека скoрoсть ветра ниже в 1.5-2 раза). Если метеoстанция нахoдится в гoрoде или в лесу, тo скoрoсть ветра занижена на 2-4 м/с пo сравнению с oткрытым местoм. Скoрoсть ветра над акватoриями крупных рек и oзёр, а также на вершинах хoлмoв на 2-5 м/с выше, чем в oбычных услoвиях.
Атмoсфернoе давление в разных тoчках местнoсти мoжет значительнo oтличаться oт давления на метеoстанции, в зависимoсти oт услoвий рельефа (при пoдъёме на 10 м давление пoнижается примернo на 1 мм рт.ст.).